TimePST,TemperatureF,Dew PointF,Humidity,Sea Level PressureIn,VisibilityMPH,Wind Direction,Wind SpeedMPH,Gust SpeedMPH,PrecipitationIn,Events,Conditions,WindDirDegrees,DateUTC
12:53 AM,42.1,37.9,85,29.95,10.0,SSW,16.1,21.9,0.03,Rain,Light Rain,210,2012-12-27 08:53:00
1:31 AM,42.8,37.4,81,29.95,10.0,SSW,12.7,-,0.01,Rain,Light Rain,210,2012-12-27 09:31:00
1:53 AM,42.1,37.9,85,29.99,10.0,SSW,13.8,-,0.01,Rain,Light Rain,200,2012-12-27 09:53:00
2:39 AM,42.8,39.2,87,29.98,10.0,SW,8.1,-,0.01,Rain,Light Rain,220,2012-12-27 10:39:00
2:53 AM,42.1,39.0,89,30.01,9.0,SSW,10.4,-,0.01,Rain,Light Rain,210,2012-12-27 10:53:00
3:27 AM,42.8,39.2,87,29.99,10.0,SSW,9.2,-,N/A,Rain,Light Rain,200,2012-12-27 11:27:00
3:41 AM,42.8,39.2,87,29.99,10.0,SSW,8.1,-,0.04,Rain,Light Rain,200,2012-12-27 11:41:00
3:53 AM,42.1,39.0,89,30.02,10.0,SSW,9.2,-,0.05,Rain,Light Rain,200,2012-12-27 11:53:00
4:04 AM,42.8,39.2,87,30.00,10.0,SSW,8.1,-,0.01,Rain,Light Rain,200,2012-12-27 12:04:00
4:38 AM,42.8,39.2,87,30.00,10.0,SSW,6.9,-,0.02,Rain,Light Rain,200,2012-12-27 12:38:00
4:53 AM,41.0,39.0,93,30.04,10.0,South,5.8,-,0.03,Rain,Light Rain,190,2012-12-27 12:53:00
5:00 AM,41.0,39.2,93,30.01,10.0,SSW,6.9,-,0.00,,Overcast,200,2012-12-27 13:00:00
5:18 AM,42.8,39.2,87,30.02,10.0,South,4.6,-,0.00,,Overcast,190,2012-12-27 13:18:00
5:53 AM,41.0,39.0,93,30.06,8.0,SSE,3.5,-,0.00,Rain,Light Rain,150,2012-12-27 13:53:00
6:17 AM,41.0,39.2,93,30.04,2.0,SE,3.5,-,0.00,Rain,Light Rain,130,2012-12-27 14:17:00
6:42 AM,42.8,39.2,87,30.04,2.0,North,4.6,-,0.01,Rain,Light Rain,360,2012-12-27 14:42:00
6:53 AM,41.0,37.9,89,30.07,2.0,Variable,3.5,-,0.02,Rain,Light Rain,0,2012-12-27 14:53:00
7:36 AM,41.0,37.4,87,30.05,9.0,Calm,Calm,-,0.01,,Overcast,0,2012-12-27 15:36:00
7:53 AM,41.0,37.9,89,30.08,10.0,West,4.6,-,0.01,,Overcast,260,2012-12-27 15:53:00
8:53 AM,41.0,37.9,89,30.11,10.0,SW,4.6,-,N/A,,Overcast,220,2012-12-27 16:53:00
9:07 AM,41.0,37.4,87,30.09,10.0,SW,5.8,-,N/A,,Overcast,230,2012-12-27 17:07:00
9:53 AM,41.0,37.0,86,30.13,10.0,SW,9.2,-,0.00,,Mostly Cloudy,230,2012-12-27 17:53:00
10:53 AM,41.0,37.0,86,30.14,10.0,WSW,3.5,-,N/A,,Overcast,240,2012-12-27 18:53:00
11:40 AM,42.8,39.2,87,30.11,10.0,SW,6.9,-,N/A,,Overcast,220,2012-12-27 19:40:00
11:53 AM,43.0,39.0,86,30.14,10.0,WSW,5.8,-,N/A,,Overcast,240,2012-12-27 19:53:00
12:53 PM,43.0,39.0,86,30.15,10.0,WSW,5.8,-,N/A,,Overcast,240,2012-12-27 20:53:00
1:53 PM,45.0,37.9,76,30.14,10.0,SW,10.4,19.6,0.00,,Mostly Cloudy,220,2012-12-27 21:53:00
2:53 PM,45.0,37.0,74,30.15,10.0,SSW,9.2,-,N/A,,Mostly Cloudy,210,2012-12-27 22:53:00
3:17 PM,44.6,37.4,76,30.13,10.0,SSW,10.4,-,N/A,,Mostly Cloudy,210,2012-12-27 23:17:00
3:53 PM,44.6,35.6,71,30.14,10.0,SSW,9.2,-,N/A,,Mostly Cloudy,200,2012-12-27 23:53:00
4:28 PM,42.8,35.6,76,30.14,10.0,South,5.8,-,N/A,,Mostly Cloudy,180,2012-12-28 00:28:00
4:53 PM,43.0,36.0,76,30.17,10.0,South,6.9,-,N/A,,Mostly Cloudy,190,2012-12-28 00:53:00
5:53 PM,42.1,35.1,76,30.18,10.0,South,6.9,-,N/A,,Mostly Cloudy,180,2012-12-28 01:53:00
6:35 PM,42.8,33.8,70,30.14,10.0,South,8.1,-,N/A,,Overcast,170,2012-12-28 02:35:00
6:53 PM,42.1,35.1,76,30.17,10.0,South,6.9,-,N/A,,Overcast,170,2012-12-28 02:53:00
7:53 PM,39.9,34.0,79,30.18,10.0,South,4.6,-,N/A,,Overcast,170,2012-12-28 03:53:00
8:19 PM,39.2,33.8,81,30.15,10.0,South,4.6,-,N/A,,Mostly Cloudy,170,2012-12-28 04:19:00
8:53 PM,41.0,36.0,82,30.17,10.0,SE,5.8,-,N/A,,Overcast,130,2012-12-28 04:53:00
9:53 PM,37.9,34.0,86,30.18,10.0,SSE,4.6,-,N/A,,Mostly Cloudy,150,2012-12-28 05:53:00
10:53 PM,39.9,34.0,79,30.19,10.0,ESE,5.8,-,N/A,,Overcast,120,2012-12-28 06:53:00
11:53 PM,39.0,33.1,79,30.19,10.0,SE,5.8,-,N/A,,Overcast,140,2012-12-28 07:53:00